Printer-friendly version

IAU Minor Planet Center

Minor Planet Center

(135) Hertha

Orbital Elements

The following orbital elements are taken from MPO 595
  (135) Hertha
Epoch 2003 Dec. 27.0 TT = JDT 2453000.5                 Goffin
M 319.48595              (2000.0)            P               Q
n   0.26044800     Peri.  340.15213     +0.80974261     +0.58667931
a   2.4284101      Node   343.91122     -0.53278577     +0.72713114
e   0.2062791      Incl.    2.30564     -0.24587847     +0.35649361
P   3.78           H    8.23          G   0.15           U   0
From 522 observations at 71 oppositions, 1874-1999, mean residual 0".56.
An explanation of the orbital elements is available.

These orbital elements are also available in forms suitable for loading into a number of popular planetarium-type software programs.


Ephemeris

The following ephemeris is at intervals of five days. A daily ephemeris covering the same time interval is also available.

Date    TT    R. A. (2000) Decl.     Delta      r     Elong.  Phase     V
 
2004 07 14    00 48.24   +05 03.9    1.509    1.944    98.8    31.1    11.9
2004 07 19    00 53.84   +05 45.8    1.463    1.947   102.0    30.7    11.8
2004 07 24    00 58.90   +06 24.5    1.419    1.952   105.4    30.1    11.7
2004 07 29    01 03.38   +06 59.7    1.375    1.956   108.9    29.4    11.7
2004 08 03    01 07.23   +07 31.4    1.333    1.961   112.6    28.5    11.6
2004 08 08    01 10.40   +07 59.2    1.292    1.966   116.5    27.5    11.5
2004 08 13    01 12.83   +08 22.9    1.253    1.972   120.6    26.3    11.4
2004 08 18    01 14.46   +08 42.1    1.216    1.978   124.9    24.8    11.3
2004 08 23    01 15.26   +08 56.7    1.182    1.984   129.4    23.2    11.2
2004 08 28    01 15.21   +09 06.5    1.150    1.991   134.2    21.3    11.1
2004 09 02    01 14.31   +09 11.5    1.122    1.997   139.2    19.3    11.0
2004 09 07    01 12.56   +09 11.5    1.098    2.005   144.4    17.0    10.8
2004 09 12    01 10.00   +09 06.6    1.077    2.012   149.9    14.5    10.7
2004 09 17    01 06.72   +08 57.0    1.062    2.020   155.5    11.9    10.6
2004 09 22    01 02.84   +08 43.2    1.051    2.028   161.4     9.1    10.5
2004 09 27    00 58.51   +08 25.9    1.047    2.036   167.3     6.2    10.4
2004 10 02    00 53.91   +08 05.9    1.048    2.045   173.2     3.3    10.2
2004 10 07    00 49.23   +07 44.2    1.055    2.054   177.7     1.1    10.1
2004 10 12    00 44.64   +07 21.9    1.068    2.063   173.7     3.0    10.3
2004 10 17    00 40.35   +07 00.0    1.087    2.072   167.9     5.8    10.5
2004 10 22    00 36.53   +06 39.9    1.112    2.082   162.0     8.5    10.6
2004 10 27    00 33.30   +06 22.3    1.143    2.091   156.2    11.1    10.8
2004 11 01    00 30.77   +06 08.0    1.180    2.101   150.5    13.4    11.0
2004 11 06    00 28.98   +05 57.5    1.221    2.111   145.1    15.6    11.1
2004 11 11    00 27.97   +05 51.2    1.267    2.121   139.8    17.5    11.3
2004 11 16    00 27.76   +05 49.3    1.317    2.132   134.7    19.3    11.4
2004 11 21    00 28.33   +05 51.9    1.371    2.142   129.8    20.7    11.6
2004 11 26    00 29.65   +05 58.9    1.428    2.153   125.1    22.0    11.7
2004 12 01    00 31.67   +06 10.0    1.488    2.164   120.6    23.1    11.9

Back to Bright Minor Planets

Astronomical Headlines Index


Valid HTML 4.01!